Regional Weather Roundup
Issued by NWS

Home | Current Version | Previous Version | Text Only | Print | Product List | Glossary On
Versions: 1 2 3 4 5 6 7 8 9 10 11 12 13 14 15 16 17 18 19 20 21 22 23 24 25 26 27 28 29 30 31 32 33 34 35 36 37 38 39 40 41 42 43 44 45 46 47 48 49 50
000
ASUS43 KDTX 251510
RWRMI
MICHIGAN HOURLY REGIONAL WEATHER ROUNDUP
NATIONAL WEATHER SERVICE DETROIT/PONTIAC MI
1100 AM EDT MON SEP 25 2017

NOTE: "FAIR" INDICATES FEW OR NO CLOUDS BELOW 12,000 FEET WITH NO
SIGNIFICANT WEATHER AND/OR OBSTRUCTION TO VISIBILITY.

MIZ047>049-052>055-059>063-066>070-074>076-081>083-251600-
SOUTHEAST LOWER MICHIGAN

CITY           SKY/WX    TMP DP  RH WIND       PRES   REMARKS
ADRIAN         SUNNY     81  64  56 VRB3      30.08F
ALMA           SUNNY     80  62  53 CALM      30.07S
ANN ARBOR      MOSUNNY   82  68  62 CALM      30.07S
BAD AXE        SUNNY     80  65  59 S3        30.09F
CARO           MOSUNNY   78  65  63 CALM      30.07F
DETROIT CITY   MOSUNNY   81  69  67 E3        30.07S
DETROIT        SUNNY     82  66  58 CALM      30.08S
FLINT          PTSUNNY   81  66  60 CALM      30.08S
GROSSE ILE     MOSUNNY   78  70  77 CALM      30.06S
HILLSDALE      CLOUDY    81  59  47 S5        30.08F
HOWELL         MOSUNNY   79  67  66 CALM      30.08F

CITY           SKY/WX    TMP DP  RH WIND       PRES   REMARKS
JACKSON        MOSUNNY   79  63  57 CALM      30.08S
LAMBERTVILLE   SUNNY     82  67  60 CALM      30.07S
LANSING        MOSUNNY   81  61  50 W5        30.08S
LAPEER         FAIR      81  66  60 S5        30.08S
MASON          SUNNY     80  66  60 CALM      30.08S
MONROE         SUNNY     82  68  62 CALM      30.06F
MT. CLEMENS    PTSUNNY   77  74  91 E5        30.07S
PONTIAC        PTSUNNY   81  67  62 VRB3      30.08S
PORT HOPE        N/A     73  67  81 SE6       30.07F
PORT HURON     MOSUNNY   81  70  69 CALM      30.08S
TRI CITIES     SUNNY     80  68  66 S5        30.07F
MIDLAND        FAIR      79  65  62 CALM      30.06F
TROY           MOSUNNY   81  68  65 CALM      30.09S
SAGINAW HB     MOSUNNY   77  64  65 S3        30.06S
$$
MIZ043>046-050>051-056>058-064>065-071>073-077>080-251600-
SOUTHWEST LOWER MICHIGAN

CITY           SKY/WX    TMP DP  RH WIND       PRES   REMARKS
BATTLE CREEK   SUNNY     82  60  47 VRB3      30.08S
BENTON HARBOR  SUNNY     79  59  50 S5        30.05S
BIG RAPIDS     SUNNY     78  59  51 CALM      30.06F
COLDWATER      MOSUNNY   81  55  39 CALM      30.08S
FREMONT        FAIR      78  61  55 CALM      30.05S
HOLLAND        SUNNY     82  59  45 S6        30.06S
GRAND RAPIDS   MOSUNNY   83  58  42 SW5       30.06S
IONIA          FAIR      84  55  36 SW7       30.06S
KALAMAZOO      SUNNY     79  60  52 CALM      30.07F
LUDINGTON      SUNNY     79  62  56 S6        30.03S
MARSHALL       SUNNY     81  63  54 CALM      30.07F
MOUNT PLEASANT MOSUNNY   80  61  53 CALM      30.06S
MUSKEGON       MOSUNNY   82  59  45 VRB5      30.04F
SOUTH HAVEN    SUNNY     80  58  47 SW5       30.05S
$$
MIZ016>042-251600-
NORTHERN LOWER MICHIGAN

CITY           SKY/WX    TMP DP  RH WIND       PRES   REMARKS
ALPENA         MOSUNNY   79  65  62 SW7       30.06F
BELLAIRE       CLOUDY    76  62  62 CALM      30.04S
CADILLAC       SUNNY     80  57  45 SW6       30.07S
CHARLEVOIX     PTSUNNY   77  61  57 S7        30.05S
FRANKFORT      PTSUNNY   79  60  53 S5        30.03S
GAYLORD        PTSUNNY   77  59  53 S7        30.08S
GRAYLING       PTSUNNY   76  61  58 SW5       30.08S
HARBOR SPRINGS MOSUNNY   77  60  55 N3        30.03S
HOUGHTON LAKE  MOSUNNY   78  60  53 VRB3      30.09S
MANISTEE       MOSUNNY   75  66  73 E3        30.02F
OSCODA         MOSUNNY   79  65  62 SW5       30.07S
PELLSTON       MOSUNNY   81  62  52 S5        30.03F
ROGERS CITY    MOSUNNY   80  63  56 SW5       30.05S
TRAVERSE CITY  PTSUNNY   81  61  50 S5        30.02S
$$
MIZ007>008-015-251600-
EASTERN UPPER MICHIGAN

CITY           SKY/WX    TMP DP  RH WIND       PRES   REMARKS
KINROSS        SUNNY     77  64  64 SW8       30.03S
MACKINAC ISLAN MOSUNNY   76  61  58 S5        30.03R
NEWBERRY       SUNNY     75  67  76 SW10      30.01S
S. S. MARIE    SUNNY     77  65  66 SW6       30.01F
MUNISING         N/A     78  67  68 SW7       29.97R
$$
MIZ004>006-011>014-085-251600-
CENTRAL UPPER MICHIGAN

CITY           SKY/WX    TMP DP  RH WIND       PRES   REMARKS
MANISTIQUE       N/A     72  66  81 S9        30.00S
MENOMINEE      PTSUNNY   75  65  70 SW6       29.99F
SAWYER-GWINN   SUNNY     73  63  68 SW7       30.00R
$$
MIZ001>003-009>011-084-251600-
WESTERN UPPER MICHIGAN

CITY           SKY/WX    TMP DP  RH WIND       PRES   REMARKS
IRON MOUNTAIN  MOSUNNY   73  62  68 CALM      29.98F
HOUGHTON       CLOUDY    70  63  78 W13       29.97R
COPPER HARBOR    N/A     73  64  73 N8        29.94R
IRONWOOD       CLOUDY    67  63  87 CALM      29.99F
$$

ABBREVIATIONS USED IN REMARKS
   TC - TEMPERATURE IN CELSIUS
  WCI - WIND CHILL INDEX
   HX - HEAT INDEX
  VSB - VISIBILITY





USA.gov is the U.S. government's official web portal to all federal, state and local government web resources and services.